Home   Weather   Lagos   Past weeks
Flag for Nigeria

Past Weather in Lagos, Nigeria — Yesterday and Last 2 Weeks

Now
77 °F

Light rain. Partly sunny.


Feels Like: 78 °F
Forecast: 86 / 74 °F
Wind: 3 mph from Southeast

Location: Lagos / Ikeja

Current Time: Oct 22, 2019 at 10:32:33 am

Latest Report: Oct 22, 2019 at 9:00 am


Visibility: 4 mi

Pressure: 29.92 "Hg

Humidity: 100%

Dew Point: 77 °F

Location of LagosLocation

Past Weather in Lagos — Graph

°F

Lagos Temperature Yesterday

Maximum temperature yesterday: 88 °F (at 3:00 pm)
Minimum temperature yesterday: 73 °F (at 2:00 am)
Average temperature yesterday: 80 °F

High & Low Weather Summary for the Past Weeks

 TemperatureHumidityPressure
High90 °F (Oct 14, 1:00 pm)100% (Oct 8, 6:00 am)31.75 "Hg (Oct 8, 6:00 am)
Low72 °F (Oct 16, 9:00 pm)59% (Oct 16, 4:00 pm)29.77 "Hg (Oct 10, 4:00 pm)
Average79 °F90%29.89 "Hg
* Reported Oct 7 9:00 am — Oct 22 9:00 am, Lagos. Weather by CustomWeather, © 2019

Note: Actual official high and low records may vary slightly from our data, if they occured in-between our weather recording intervals... More about our weather records

Advertising

Lagos Weather History for the Previous 24 Hours

Scroll right to see more
 ConditionsComfort  
Time TempWeatherWind HumidityBarometerVisibility
9:00 am
Tue, Oct 22
77 °FLight rain. Partly sunny.3 mph100%29.92 "Hg4 mi
8:00 am77 °FLight rain. Partly sunny.2 mph94%29.89 "Hg4 mi
7:00 am77 °FScattered clouds.2 mph94%29.89 "Hg5 mi
6:00 am77 °FPassing clouds.No wind94%29.86 "HgN/A
5:00 am77 °FPassing clouds.No wind94%29.86 "HgN/A
4:00 am77 °FPassing clouds.3 mph94%29.86 "HgN/A
3:00 am77 °FPassing clouds.5 mph94%29.86 "HgN/A
2:00 am77 °FPassing clouds.2 mph94%29.86 "HgN/A
1:00 am77 °FPassing clouds.2 mph94%29.89 "HgN/A
12:00 am77 °FPassing clouds.No wind100%29.89 "HgN/A
11:00 pm
Mon, Oct 21
79 °FPassing clouds.No wind94%29.89 "HgN/A
10:00 pm79 °FPassing clouds.2 mph94%29.89 "HgN/A
9:00 pm81 °FPassing clouds.3 mph89%29.89 "HgN/A
8:00 pm81 °FPassing clouds.3 mph89%29.89 "HgN/A
7:00 pm81 °FPassing clouds.5 mph84%29.86 "HgN/A
6:00 pm82 °FScattered clouds.9 mph79%29.86 "HgN/A
5:00 pm84 °FScattered clouds.10 mph74%29.83 "HgN/A
4:00 pm86 °FPartly sunny.9 mph75%29.83 "HgN/A
3:00 pm88 °FPartly sunny.7 mph66%29.86 "HgN/A
2:00 pm84 °FPartly sunny.9 mph74%29.86 "HgN/A
1:00 pm84 °FPartly sunny.10 mph79%29.92 "HgN/A
12:00 pm86 °FScattered clouds.No wind70%29.95 "HgN/A
11:00 am84 °FScattered clouds.3 mph79%31.75 "HgN/A
10:00 am81 °FScattered clouds.6 mph89%29.98 "HgN/A
Weather by CustomWeather, © 2019

See weather overview